This demonstration page uses our WeatherBlox Daily Observations layout. Learn more.

Left ArrowRight Arrow

Hourly Observations for January 27, 2017

Temp ( °F °C ) Dew Point ( °F °C ) Humidity (%) Winds ( mph kmh ) Pressure ( in mb ) Visibility ( mi km ) Precip ( " mm )
2:58 am 02:58 Cloudy 21 -6 14 -10 74 74 NW 18 30 30.16 1022 10 16 0.00 0.00
3:07 am 03:07 Cloudy with Light Snow 19 -7 14 -10 79 79 NW 18 30 30.21 1023 10 16 0.00 0.00
3:58 am 03:58 Cloudy with Light Snow 18 -7.8 12 -11 78 78 NW 14 22 30.18 1022 10 16 0.00 0.03
4:32 am 04:32 Partly Cloudy 18 -8 12 -11 79 79 NW 13 20 30.21 1023 10 16 0.00 0.00
4:58 am 04:58 Clear 16 -8.9 12 -11.1 84 84 NW 10 17 30.18 1022 10 16 0.00 0.03
5:58 am 05:58 Clear 15 -9.5 11 -11.8 84 84 WNW 8 13 30.18 1022 10 16 0.00 0.00
6:58 am 06:58 Clear 15 -9.7 10 -12.1 83 83 W 6 9 30.18 1022 10 16 0.00 0.00
7:58 am 07:58 Sunny 14 -10.1 10 -12.3 84 84 W 7 11 30.17 1022 10 16 0.00 0.00
8:58 am 08:58 Sunny 16 -8.7 12 -10.9 84 84 WSW 6 9 30.16 1022 10 16 0.00 0.00
9:58 am 09:58 Sunny 21 -5.9 16 -9 79 79 WSW 6 9 30.16 1021 10 16 0.00 0.00
10:58 am 10:58 Sunny 28 -2.2 19 -7.2 69 69 WNW 12 19 30.16 1021 10 16 0.00 0.00
11:58 am 11:58 Sunny 32 -0.2 21 -6.1 65 65 W 12 19 30.12 1020 10 16 0.00 0.00
12:58 pm 12:58 Partly Cloudy 35 1.5 21 -6 58 58 W 16 26 30.08 1019 10 16 0.00 0.00
1:58 pm 13:58 Sunny 36 2.2 24 -4.7 61 61 WNW 20 31 30.07 1018 10 16 0.00 0.00
2:58 pm 14:58 Mostly Sunny 37 2.5 25 -3.7 64 64 W 15 24 30.06 1018 10 16 0.00 0.00
3:58 pm 15:58 Partly Cloudy 36 2.3 27 -3 68 68 WNW 16 26 30.06 1018 10 16 0.00 0.00
4:58 pm 16:58 Cloudy 35 1.7 28 -2.3 75 75 WNW 20 31 30.06 1018 10 16 0.00 0.00
5:58 pm 17:58 Cloudy 34 1.2 29 -1.7 81 81 NW 14 22 30.07 1018 10 16 0.00 0.00
6:58 pm 18:58 Cloudy 34 0.9 29 -1.4 85 85 NW 17 28 30.07 1018 10 16 0.00 0.00
7:58 pm 19:58 Cloudy 33 0.4 28 -2.2 83 83 NW 16 26 30.09 1019 10 16 0.00 0.00
8:58 pm 20:58 Cloudy 32 -0.1 27 -2.8 82 82 NW 12 19 30.09 1019 10 16 0.00 0.00
9:58 pm 21:58 Mostly Clear 30 -1.1 27 -2.8 88 88 NW 13 20 30.09 1019 10 16 0.00 0.00
10:58 pm 22:58 Clear 29 -1.8 27 -2.6 94 94 WNW 12 19 30.09 1019 10 16 0.00 0.00
11:58 pm 23:58 Clear 27 -2.9 27 -3 99 99 NW 9 15 30.09 1019 10 16 0.00 0.00

Powered by AerisWeather